Friday Harbor, WA

7:46 AM PDT on April 22, 2018 (GMT -0700)
Friday Harbor

Weather History for KFHR - August, 2012

Change the Weather History Date:

Wednesday, August 15, 2012

  Actual Average Record
Temperature  
Mean Temperature 68 °F -  
Max Temperature 84 °F 70 °F 91 °F (2010)
Min Temperature 52 °F 48 °F 46 °F (2002)
Cooling Degree Days 3    
Growing Degree Days 18 (Base 50)    
Moisture  
Dew Point 51 °F    
Average Humidity 56    
Maximum Humidity 97    
Minimum Humidity 27    
Precipitation  
Precipitation 0.00 in - - ()
Sea Level Pressure  
Sea Level Pressure 29.95 in    
Wind  
Wind Speed 5 mph (North)    
Max Wind Speed 13 mph    
Max Gust Speed 23 mph    
Visibility 10 miles    
Events      
Averages and records for this station are not official NWS values.
T = Trace of Precipitation, MM = Missing Value Source: NWS Daily Summary

Daily Weather History Graph

Daily Weather History Graph

Search for Another Location

Airport or City:

Astronomy

Aug. 15, 2012 Rise Set
Actual Time 6:06 AM PDT 8:25 PM PDT
Civil Twilight 5:31 AM PDT 8:59 PM PDT
Nautical Twilight 4:48 AM PDT 9:42 PM PDT
Astronomical Twilight 3:58 AM PDT 10:31 PM PDT
Moon 4:04 AM PDT (8/15) 7:03 PM PDT (8/15)
Length of Visible Light 15h 27m
Length of Day
14h 18m
Waning Crescent, 4% of the Moon is Illuminated
Aug 15
Waning Crescent
Aug 17
New
Aug 24
First Quarter
Aug 31
Full
Sep 8
Last Quarter

Hourly Weather History & Observations

Time (PDT) Temp. Dew Point Humidity Pressure Visibility Wind Dir Wind Speed Gust Speed Precip Events Conditions
12:53 AM 52.0 °F 51.1 °F 97% 29.95 in 10.0 mi Calm Calm - N/A   Clear
1:53 AM 53.1 °F 51.1 °F 93% 29.96 in 10.0 mi Calm Calm - N/A   Clear
2:53 AM 55.0 °F 54.0 °F 96% 29.95 in 10.0 mi Calm Calm - N/A   Clear
3:53 AM 55.9 °F 55.0 °F 97% 29.96 in 10.0 mi Calm Calm - N/A   Clear
4:53 AM 64.0 °F 59.0 °F 84% 29.96 in 10.0 mi NNW 6.9 mph - N/A   Clear
5:53 AM 64.9 °F 59.0 °F 81% 29.96 in 10.0 mi North 8.1 mph - N/A   Clear
6:53 AM 66.0 °F 57.0 °F 73% 29.97 in 10.0 mi North 5.8 mph - N/A   Clear
7:53 AM 69.1 °F 55.9 °F 63% 29.98 in 10.0 mi North 9.2 mph - N/A   Clear
8:53 AM 72.0 °F 55.0 °F 55% 29.99 in 10.0 mi Variable 6.9 mph - N/A   Clear
9:53 AM 73.9 °F 54.0 °F 50% 29.99 in 9.0 mi North 12.7 mph 23.0 mph N/A   Clear
10:53 AM 75.9 °F 53.1 °F 45% 29.99 in 10.0 mi North 11.5 mph 18.4 mph N/A   Clear
11:53 AM 79.0 °F 52.0 °F 39% 29.98 in 10.0 mi North 11.5 mph 19.6 mph N/A   Clear
12:53 PM 81.0 °F 51.1 °F 35% 29.98 in 9.0 mi North 10.4 mph 18.4 mph N/A   Clear
1:53 PM 82.0 °F 50.0 °F 33% 29.97 in 10.0 mi North 8.1 mph - N/A   Clear
2:53 PM 81.0 °F 48.0 °F 31% 29.95 in 10.0 mi North 11.5 mph 17.3 mph N/A   Clear
3:53 PM 82.9 °F 46.9 °F 28% 29.93 in 10.0 mi North 10.4 mph 17.3 mph N/A   Clear
4:53 PM 84.0 °F 46.9 °F 27% 29.91 in 8.0 mi North 8.1 mph 17.3 mph N/A   Clear
5:53 PM 82.0 °F 46.0 °F 28% 29.90 in 10.0 mi North 10.4 mph 17.3 mph N/A   Clear
6:53 PM 80.1 °F 46.0 °F 30% 29.89 in 9.0 mi North 8.1 mph - N/A   Clear
7:53 PM 77.0 °F 46.9 °F 34% 29.89 in 10.0 mi NW 4.6 mph - N/A   Clear
8:53 PM 71.1 °F 46.9 °F 42% 29.89 in 10.0 mi Variable 3.5 mph - N/A   Clear
9:53 PM 63.0 °F 48.9 °F 60% 29.91 in 10.0 mi Calm Calm - N/A   Clear
11:53 PM 59.0 °F 48.0 °F 67% 29.92 in 10.0 mi Calm Calm - N/A   Clear